Location: ??????
(30.5519°N, 47.7720°E)
Time: 20:27:45
(UTC+00:00)

Cosmos 1703 - Visible Passes

Search period start: 07 May 2021 00:00
Search period end: 17 May 2021 00:00
Orbit: 522 x 540 km, 82.5° (Epoch: 06 May)

Date Brightness Start Highest point End Pass type
(mag) Time Alt. Az. Time Alt. Az. Time Alt. Az.
07 May 5.8 00:56:28 10° SE 00:59:28 22° E 01:02:28 10° NE visible
08 May 5.9 00:46:23 10° SE 00:49:16 20° E 00:52:09 10° NE visible
09 May 6.0 00:36:18 10° SE 00:39:04 19° E 00:41:49 10° NE visible
10 May 6.0 00:26:15 10° SE 00:28:52 18° E 00:31:28 10° NE visible
11 May 6.1 00:16:13 10° SE 00:18:40 16° E 00:21:07 10° NE visible
12 May 6.1 00:06:11 10° SE 00:08:28 15° E 00:10:45 10° NE visible
12 May 6.1 23:56:13 10° ESE 23:58:17 14° E 00:00:21 10° NE visible
13 May 6.1 23:46:14 10° ESE 23:48:05 13° E 23:49:56 10° ENE visible
14 May 4.3 01:20:30 10° SW 01:23:47 26° W 01:27:05 10° NNW visible
14 May 6.1 23:36:19 10° ESE 23:37:53 12° E 23:39:27 10° ENE visible
15 May 4.2 01:10:22 11° SW 01:13:34 28° W 01:16:56 10° NNW visible
15 May 6.2 23:26:29 10° ESE 23:27:42 11° E 23:28:54 10° ENE visible
16 May 4.1 01:00:46 15° SW 01:03:20 30° W 01:06:47 10° NNW visible
16 May 6.2 23:16:51 10° E 23:17:30 10° E 23:18:10 10° ENE visible
